Location: Zagreb
(45.8000°N, 16.0000°E)
Time: 15:22:34
(UTC+02:00)

Transit 2A Rocket - All Passes

Search period start: 14 July 2024 00:00
Search period end: 24 July 2024 00:00
Orbit: 582 x 910 km, 66.7° (Epoch: 13 July)

Date Brightness Start Highest point End Pass type
(mag) Time Alt. Az. Time Alt. Az. Time Alt. Az.
14 Jul - 00:52:51 10° NW 00:58:57 69° WSW 01:04:50 10° SSE visible
14 Jul - 02:38:18 10° W 02:40:22 12° W 02:42:25 10° WSW visible
14 Jul - 15:28:08 10° SSW 15:33:19 57° ESE 15:39:00 10° NE daylight
14 Jul - 17:11:22 10° WSW 17:16:13 31° NW 17:21:26 10° NNE daylight
14 Jul - 18:58:42 10° NW 19:00:47 12° NNW 19:02:54 10° N daylight
14 Jul - 22:26:41 10° NNW 22:31:16 21° NE 22:35:49 10° E visible
15 Jul - 00:08:41 10° NNW 00:14:49 77° NE 00:20:47 10° SE visible
15 Jul - 01:52:22 10° WNW 01:56:43 21° WSW 02:00:58 10° SSW visible
15 Jul - 14:44:41 10° S 14:49:25 34° ESE 14:54:32 10° NE daylight
15 Jul - 16:26:34 10° WSW 16:31:47 46° NW 16:37:27 10° NNE daylight
15 Jul - 18:12:45 10° WNW 18:15:55 15° NNW 18:19:11 10° N daylight
15 Jul - 21:42:51 10° N 21:46:33 16° NNE 21:50:14 10° ENE visible
15 Jul - 23:24:37 10° NNW 23:30:33 50° NE 23:36:21 10° SE visible
16 Jul - 01:07:32 10° NW 01:12:56 34° WSW 01:18:10 10° S visible
16 Jul - 14:01:52 10° SSE 14:05:40 20° ESE 14:09:40 10° ENE daylight
16 Jul - 15:42:07 10° SW 15:47:30 71° NW 15:53:23 10° NNE daylight
16 Jul - 17:27:07 10° WNW 17:31:09 19° NNW 17:35:22 10° NNE daylight
16 Jul - 20:59:05 10° N 21:01:43 13° NNE 21:04:20 10° NE daylight
16 Jul - 22:40:37 10° NNW 22:46:09 34° NE 22:51:35 10° ESE visible
17 Jul - 00:23:04 10° NW 00:29:01 56° WSW 00:34:46 10° SSE visible
17 Jul - 13:20:38 10° ESE 13:22:02 11° E 13:23:28 10° E daylight
17 Jul - 14:58:02 10° SSW 15:03:22 72° ESE 15:09:12 10° NE daylight
17 Jul - 16:41:50 10° W 16:46:31 27° NW 16:51:28 10° NNE daylight
17 Jul - 18:29:44 10° NNW 18:31:15 11° NNW 18:32:47 10° N daylight
17 Jul - 20:15:30 10° N 20:16:46 11° NNE 20:18:02 10° NNE daylight
17 Jul - 21:56:41 10° NNW 22:01:36 25° NE 22:06:29 10° E visible
17 Jul - 23:38:48 10° NNW 23:44:57 88° WSW 23:50:53 10° SSE visible
18 Jul - 01:23:04 10° WNW 01:26:37 16° WSW 01:30:06 10° SW visible
18 Jul - 14:14:21 10° S 14:19:24 43° ESE 14:24:51 10° NE daylight
18 Jul - 15:56:53 10° WSW 16:02:00 38° NW 16:07:31 10° NNE daylight
18 Jul - 17:43:35 10° NW 17:46:20 13° NNW 17:49:09 10° N daylight
18 Jul - 21:12:49 10° NNW 21:16:57 18° NNE 21:21:02 10° ENE visible
18 Jul - 22:54:41 10° NNW 23:00:45 61° NE 23:06:37 10° SE visible
19 Jul - 00:37:54 10° NW 00:42:54 27° WSW 00:47:44 10° SSW visible
19 Jul - 13:31:13 10° SSE 13:35:33 26° ESE 13:40:13 10° NE daylight
19 Jul - 15:12:16 10° SW 15:17:38 58° NW 15:23:29 10° NNE daylight
19 Jul - 16:57:49 10° WNW 17:01:31 17° NNW 17:05:20 10° NNE daylight
19 Jul - 20:29:00 10° N 20:32:08 14° NNE 20:35:17 10° NE daylight
19 Jul - 22:10:39 10° NNW 22:16:24 41° NE 22:22:00 10° ESE visible
19 Jul - 23:53:17 10° NW 23:59:02 44° WSW 00:04:34 10° S visible
20 Jul - 12:48:56 10° SE 12:51:52 15° ESE 12:54:55 10° ENE daylight
20 Jul - 14:28:00 10° SSW 14:33:25 89° ESE 14:39:21 10° NNE daylight
20 Jul - 16:12:22 10° W 16:16:48 23° NW 16:21:28 10° NNE daylight
20 Jul - 18:00:57 10° NNW 18:01:43 10° N 18:02:31 10° N daylight
20 Jul - 19:45:16 10° N 19:47:14 11° NNE 19:49:12 10° NE daylight
20 Jul - 21:26:41 10° NNW 21:31:54 29° NE 21:37:02 10° E visible
20 Jul - 23:08:56 10° NW 23:15:02 72° WSW 23:20:53 10° SSE visible
21 Jul - 00:54:11 10° WNW 00:56:28 12° W 00:58:44 10° WSW visible
21 Jul - 13:44:08 10° SSW 13:49:22 55° ESE 13:55:05 10° NE daylight
21 Jul - 15:27:15 10° WSW 15:32:14 32° NW 15:37:33 10° NNE daylight
21 Jul - 17:14:29 10° NW 17:16:45 12° NNW 17:19:04 10° N daylight
21 Jul - 20:42:46 10° NNW 20:47:17 21° NNE 20:51:45 10° E daylight
21 Jul - 22:24:45 10° NNW 22:30:53 74° NE 22:36:47 10° SE visible
22 Jul - 00:08:22 10° WNW 00:12:48 22° WSW 00:17:06 10° SSW visible
22 Jul - 13:00:42 10° S 13:05:28 33° ESE 13:10:35 10° NE daylight
22 Jul - 14:42:29 10° WSW 14:47:47 48° NW 14:53:32 10° NNE daylight
22 Jul - 16:28:33 10° WNW 16:31:53 15° NNW 16:35:19 10° N daylight
22 Jul - 19:58:54 10° N 20:02:32 16° NNE 20:06:08 10° ENE daylight
22 Jul - 21:40:40 10° NNW 21:46:36 49° NE 21:52:19 10° ESE visible
22 Jul - 23:23:33 10° NW 23:28:59 35° WSW 23:34:14 10° S visible
23 Jul - 12:17:55 10° SSE 12:21:42 19° ESE 12:25:40 10° ENE daylight
23 Jul - 13:58:02 10° SW 14:03:30 74° NW 14:09:27 10° NNE daylight
23 Jul - 15:42:58 10° W 15:47:07 20° NNW 15:51:27 10° NNE daylight
23 Jul - 19:15:07 10° N 19:17:39 13° NNE 19:20:12 10° NE daylight
23 Jul - 20:56:40 10° NNW 21:02:09 33° NE 21:07:31 10° ESE daylight
23 Jul - 22:39:05 10° NW 22:45:03 58° WSW 22:50:46 10° SSE visible
